Location: Sternwarte Hubelmatt
(47.0367°N, 8.3053°E)
Time: 01:11:59
(UTC+02:00)

UWE-3 - Visible Passes

Search period start: 25 April 2024 00:00
Search period end: 05 May 2024 00:00
Orbit: 569 x 656 km, 97.8° (Epoch: 24 April)

Date Brightness Start Highest point End Pass type
(mag) Time Alt. Az. Time Alt. Az. Time Alt. Az.
25 Apr ? 03:41:37 10° NNE 03:45:46 46° E 03:47:13 33° SSE visible
25 Apr ? 05:18:18 10° NNW 05:21:27 20° WNW 05:24:14 12° WSW visible
26 Apr ? 03:56:25 10° NNE 04:00:41 66° ESE 04:02:23 35° S visible
26 Apr ? 05:33:42 10° NNW 05:36:11 15° WNW 05:38:42 10° W visible
27 Apr ? 02:38:21 10° ENE 02:39:02 10° E 02:39:43 10° E visible
27 Apr ? 04:11:15 10° NNE 04:15:34 87° W 04:17:32 33° SSW visible
28 Apr ? 02:51:34 10° NE 02:54:04 15° E 02:55:39 13° ESE visible
28 Apr ? 04:26:07 10° N 04:30:23 62° WNW 04:32:39 27° SW visible
29 Apr ? 03:05:44 10° NE 03:09:01 21° E 03:10:44 17° ESE visible
29 Apr ? 04:41:04 10° N 04:45:10 44° WNW 04:47:44 21° SW visible
30 Apr ? 03:20:09 10° NE 03:23:56 29° E 03:25:49 21° SE visible
30 Apr ? 04:56:02 10° N 04:59:53 32° WNW 05:02:49 16° WSW visible
01 May ? 03:34:41 10° NNE 03:38:48 40° E 03:40:50 25° SSE visible
01 May ? 05:11:05 10° NNW 05:14:34 24° WNW 05:17:51 11° WSW visible
02 May ? 03:49:18 10° NNE 03:53:36 57° E 03:55:52 27° S visible
02 May ? 05:26:14 10° NNW 05:29:11 18° WNW 05:32:09 10° WSW visible
03 May ? 04:03:58 10° NNE 04:08:21 80° ESE 04:10:51 26° S visible
04 May ? 02:44:36 10° ENE 02:46:39 13° E 02:48:42 10° ESE visible
04 May ? 04:18:41 10° N 04:23:04 73° WNW 04:25:49 23° SSW visible
